FW9486 Weather Reports


Display with metric or nautical units.
time (UTC)temp
F
wind
direction
speed
MPH
gust
MPH
rain 1hr
in
rain 24hr
in
rain mn
in
humidity
%
barometer
mb
20260902154547 51 0 0.0 1.0 0.02 0.10 0.10 93 1008.9
20260902153045 51 36 0.0 3.0 0.02 0.10 0.10 92 1008.6
20260902151546 51 0 0.0 4.0 0.02 0.10 0.10 92 1009.2
20260902150048 51 312 1.0 3.0 0.01 0.09 0.09 91 1009.2
20260902144558 50 295 3.0 7.0 0.03 0.08 0.08 92 1009.2
20260902143046 50 349 1.0 3.0 0.05 0.08 0.08 93 1008.3
20260902141540 50 0 0.0 1.0 0.07 0.08 0.08 93 1008.2
20260902140046 50 0 0.0 2.0 0.07 0.08 0.08 91 1008.0
20260902134547 50 355 0.0 1.0 0.04 0.05 0.05 91 1008.2
20260902133048 49 0 0.0 2.0 0.03 0.03 0.03 88 1008.1
20260902131546 50 0 0.0 5.0 0.01 0.01 0.01 86 1007.9
20260902130045 51 108 2.0 5.0 0.01 0.01 0.01 79 1007.6
20260902124549 54 0 1.0 16.0 0.01 0.01 0.01 76 1007.2
20260902123051 50 322 3.0 6.0 0.00 0.00 0.00 82 1006.6
20260902121545 48 5 0.0 2.0 0.00 0.00 0.00 82 1006.1
20260902120046 49 119 1.0 2.0 0.00 0.00 0.00 80 1005.5
20260902114551 49 52 0.0 1.0 0.00 0.00 0.00 80 1005.5
20260902113051 50 0 0.0 1.0 0.00 0.00 0.00 76 1005.3
20260902111545 49 0 0.0 0.0 0.00 0.00 0.00 80 1005.2
20260902110048 49 0 0.0 0.0 0.00 0.00 0.00 79 1004.8
20260902104545 50 0 0.0 1.0 0.00 0.00 0.00 79 1005.0
20260902103041 50 0 0.0 1.0 0.00 0.00 0.00 79 1005.2
20260902101539 51 0 0.0 1.0 0.00 0.00 0.00 77 1005.0
20260902100045 51 0 0.0 0.0 0.00 0.00 0.00 78 1004.9
20260902094546 50 0 0.0 1.0 0.00 0.00 0.00 79 1005.2
20260902093040 50 0 0.0 1.0 0.00 0.00 0.00 79 1005.2
20260902091555 52 0 0.0 1.0 0.00 0.00 0.00 71 1005.3
20260902090046 53 27 0.0 2.0 0.00 0.00 0.00 76 1005.3
20260902084549 52 0 0.0 1.0 0.00 0.00 0.00 77 1005.5
20260902083042 52 0 0.0 2.0 0.00 0.00 0.00 75 1005.3
20260902081548 53 0 0.0 1.0 0.00 0.00 0.00 72 1005.6
20260902080106 55 0 0.0 1.0 0.00 0.00 0.00 68 1005.6
20260902074546 55 0 0.0 0.0 0.00 0.00 0.00 68 1005.8
20260902073040 56 0 0.0 1.0 0.00 0.00 0.00 68 1005.9
20260902071547 56 0 0.0 1.0 0.00 0.00 0.00 68 1006.1
20260902070047 55 0 0.0 2.0 0.00 0.00 0.00 68 1006.0
20260902064603 56 0 0.0 0.0 0.00 0.00 0.00 64 1006.1
20260902063048 58 0 0.0 1.0 0.00 0.00 0.00 64 1006.1
20260902061554 59 0 0.0 1.0 0.00 0.00 0.00 62 1006.1
20260902060045 59 0 0.0 1.0 0.00 0.00 0.00 60 1006.4
20260902054541 59 0 0.0 0.0 0.00 0.00 0.00 61 1006.4
20260902053054 59 0 0.0 0.0 0.00 0.00 0.00 59 1006.5
20260902051547 59 0 0.0 0.0 0.00 0.00 0.00 60 1006.5
20260902050042 61 0 0.0 0.0 0.00 0.00 0.00 58 1006.4
20260902044550 61 0 0.0 0.0 0.00 0.00 0.00 57 1006.4
20260902043047 62 0 0.0 1.0 0.00 0.00 0.00 56 1006.5
20260902041541 61 0 0.0 1.0 0.00 0.00 0.00 57 1006.5
20260902040042 62 0 0.0 0.0 0.00 0.00 0.00 54 1006.8
20260902034558 64 0 0.0 1.0 0.00 0.00 0.00 51 1006.7
20260902033100 65 0 0.0 1.0 0.00 0.00 0.00 50 1006.7
20260902031551 66 0 0.0 0.0 0.00 0.00 0.00 48 1006.5
20260902030042 66 0 0.0 1.0 0.00 0.00 0.00 47 1006.0
20260902024544 67 0 0.0 1.0 0.00 0.00 0.00 45 1005.7
20260902023045 69 0 0.0 1.0 0.00 0.00 0.00 42 1005.3
20260902021546 70 0 0.0 1.0 0.00 0.00 0.00 42 1005.2
20260902020045 71 11 0.0 2.0 0.00 0.00 0.00 41 1005.5
20260902014540 71 0 0.0 0.0 0.00 0.00 0.00 41 1005.7
20260902013048 73 0 0.0 0.0 0.00 0.00 0.00 40 1005.9
20260902011548 74 0 0.0 2.0 0.00 0.00 0.00 38 1005.9
20260902010047 75 274 0.0 3.0 0.00 0.00 0.00 37 1005.9
20260902004547 77 120 2.0 5.0 0.00 0.00 0.00 35 1006.1
20260902003043 78 314 1.0 4.0 0.00 0.00 0.00 32 1006.4
20260902001550 78 312 2.0 5.0 0.00 0.00 0.00 33 1006.4
20260902000047 78 0 0.0 3.0 0.00 0.00 0.00 33 1006.6
20260901234553 78 225 0.0 3.0 0.00 0.00 0.00 34 1006.7
20260901233044 76 219 2.0 4.0 0.00 0.00 0.00 35 1006.9
20260901231549 77 79 1.0 3.0 0.00 0.00 0.00 35 1007.1
20260901230047 75 243 0.0 3.0 0.00 0.00 0.00 37 1007.3
20260901224555 74 133 0.0 4.0 0.00 0.00 0.00 38 1007.4
20260901223041 73 132 1.0 3.0 0.00 0.00 0.00 40 1007.7
20260901221547 72 138 2.0 5.0 0.00 0.00 0.00 39 1007.8
20260901220046 72 0 1.0 2.0 0.00 0.00 0.00 39 1008.0
20260901214553 72 203 0.0 4.0 0.00 0.00 0.00 40 1008.5
20260901213047 71 0 0.0 2.0 0.00 0.00 0.00 41 1008.6
20260901211548 71 280 0.0 7.0 0.00 0.00 0.00 42 1009.0
20260901210043 72 329 1.0 8.0 0.00 0.00 0.00 41 1009.1
20260901204550 72 310 3.0 13.0 0.00 0.00 0.00 40 1009.3
20260901203049 72 311 0.0 5.0 0.00 0.00 0.00 40 1009.5
20260901201544 69 145 1.0 3.0 0.00 0.00 0.00 44 1009.6
20260901200100 69 0 0.0 2.0 0.00 0.00 0.00 43 1009.8
20260901194601 69 231 0.0 1.0 0.00 0.00 0.00 42 1009.9
20260901193054 68 0 0.0 0.0 0.00 0.00 0.00 40 1010.1
20260901191550 68 0 0.0 1.0 0.00 0.00 0.00 40 1010.0
20260901190054 67 0 0.0 2.0 0.00 0.00 0.00 41 1010.0
20260901184551 65 98 1.0 3.0 0.00 0.00 0.00 50 1010.1
20260901183041 62 0 0.0 1.0 0.00 0.00 0.00 54 1010.2
20260901181557 62 194 2.0 5.0 0.00 0.00 0.00 52 1010.2
20260901180047 62 82 0.0 1.0 0.00 0.00 0.00 52 1010.2
20260901174554 59 0 0.0 1.0 0.00 0.00 0.00 54 1010.0
20260901173042 58 0 0.0 2.0 0.00 0.00 0.00 52 1009.9
20260901171559 58 115 0.0 2.0 0.00 0.00 0.00 53 1009.8
20260901170053 58 84 1.0 5.0 0.00 0.00 0.00 50 1009.7
20260901164554 56 0 0.0 2.0 0.00 0.00 0.00 43 1009.9
20260901163044 54 0 0.0 1.0 0.00 0.00 0.00 53 1009.8
20260901161550 51 0 0.0 1.0 0.00 0.00 0.00 58 1009.7
20260901160047 52 124 1.0 3.0 0.00 0.00 0.00 56 1009.5